Hourly Data Report for October 13, 2015

All times are specified in Local Standard Time (LST). Add 1 hour to adjust for Daylight Saving Time where and when it is observed.

PANGNIRTUNG
NUNAVUT

66°08'36.300" N
65°42'40.500" W
22.60 m
2403049
71826
WXP

Download Data

Hourly Data (October 2015)
Hourly Data Report for October 13, 2015
Temp Definition
°C
Dew Point Temp Definition
°C
Rel Hum Definition
%
Wind Dir Definition
10's deg

Wind Spd Definition
km/h
Visibility Definition
km
Stn Press Definition
kPa
Hmdx Definition


Wind Chill Definition


Weather Definition


TIME
00:00 -5.3 -7.0 88 23 2   99.11   -6 LegendNANA
01:00 -4.9 -6.9 86 24 4   99.15   -7 LegendNANA
02:00 -5.5 -8.1 82 20 3   99.20   -7 LegendNANA
03:00 -3.7 -5.7 86 23 4   99.25   -5 LegendNANA
04:00 -2.9 -5.2 84 8 4   99.29   -4 LegendNANA
05:00 -2.9 -5.0 86 15 4   99.31   -4 LegendNANA
06:00 -3.1 -4.7 89 20 3   99.35   -4 LegendNANA
07:00 -3.2 -4.5 91 12 6   99.37   -6 LegendNANA
08:00 -3.1 -4.1 93 14 2   99.37   -4 LegendNANA
09:00 -2.9 -3.6 94 25 5   99.42   -5 LegendNANA
10:00 -2.5 -3.7 92 8 2   99.41   -3 LegendNANA
11:00 -2.1 -3.3 91 25 1   99.41   -2 LegendNANA
12:00 -1.6 -3.2 88   0   99.40     LegendNANA
13:00 -2.2 -3.3 92 30 2   99.38   -3 LegendNANA
14:00 -2.6 -3.2 95 25 9   99.42   -6 LegendNANA
15:00 -2.4 -3.7 90 22 5   99.42   -4 LegendNANA
16:00 -2.9 -3.9 93   0   99.40     LegendNANA
17:00 -3.2 -4.3 92 23 2   99.40   -4 LegendNANA
18:00 -2.7 -4.0 91 23 2   99.39   -3 LegendNANA
19:00 -2.7 -3.8 92 10 1   99.38   -3 LegendNANA
20:00 -2.5 -3.9 90 1 4   99.36   -4 LegendNANA
21:00 -2.7 -3.8 92 22 2   99.33   -3 LegendNANA
22:00 -3.1 -4.3 92 0 1   99.30   -4 LegendNANA
23:00 -2.9 -4.2 91 26 3   99.28   -4 LegendNANA

Notes on Data Quality.

Legend

  • E = Estimated
  • M = Missing
  • NA = Not Available
  • ‡ = Partner data that is not subject to review by the National Climate Archives
Date modified: